Weather Roundup
Issued by NWS Chicago, IL

Home | Current Version | Previous Version | Graphics & Text | Print | Product List | Glossary On
Versions: 1 2 3 4 5 6 7 8 9 10 11 12 13 14 15 16 17 18 19 20 21 22 23 24 25 26 27 28 29 30 31 32 33 34 35 36 37 38 39 40 41 42 43 44 45 46 47 48 49 50
000
NZUS59 KLOT 031103
HRRLOT

CHICAGO AREA WEATHER ROUNDUP
NATIONAL WEATHER SERVICE CHICAGO/ROMEOVILLE IL
600 AM CDT TUE MAY 03 2016

NOTE: "FAIR" INDICATES FEW OR NO CLOUDS BELOW 12,000 FEET WITH NO
SIGNIFICANT WEATHER AND/OR OBSTRUCTIONS TO VISIBILITY.

* THESE STATIONS ARE NOT UNDER NWS QUALITY CONTROL. THEY ALSO MAY NOT
  REPORT WEATHER SUCH AS PRECIPITATION OR FOG.

ILZ005-006-012>014-019>023-031200-
NORTHEAST ILLINOIS

CITY           SKY/WX    TMP DP  RH WIND       PRES   REMARKS
OHARE          PTCLDY    41  34  76 W3        29.96S
MIDWAY         PTCLDY    43  34  70 CALM      29.97S
AURORA         CLEAR     37  34  89 W3        29.98S
LANSING*       CLOUDY    37  36  96 CALM      29.98S
WAUKEGAN       CLOUDY    44  35  70 VRB3      29.96S
DUPAGE AIRPORT CLEAR     37  32  82 CALM      29.97S
WHEELING       CLEAR     38  35  89 CALM      29.98S
$$

WIZ051-052-058>065-066-070>072-031200-
SOUTHEAST WISCONSIN

CITY           SKY/WX    TMP DP  RH WIND       PRES   REMARKS
MILWAUKEE      PTCLDY    45  32  60 VRB3      29.95S
KENOSHA*       CLEAR     39  33  79 W8        29.96S
RACINE*        MOCLDY    45  32  60 W7        29.97S
BURLINGTON     MOCLDY    35  35  99 CALM      29.96S
WAUKESHA       CLEAR     36  30  80 CALM      29.96S
$$

INZ001>003-010>013-019-020-031200-
NORTHWEST INDIANA

CITY           SKY/WX    TMP DP  RH WIND       PRES   REMARKS
GARY*          PTCLDY    39  39 100 W5        29.98S
MICHIGAN CITY* NOT AVBL
RENSSELAER*    NOT AVBL
VALPARAISO     CLOUDY    42  37  82 NW5       29.97R
$$

LMZ740>746-031200-
SOUTHERN LAKE MICHIGAN

STATION/POSITION TIME  SKY/WX   TEMP WIND        PRES    VSBY
                                AIR  DIR/SP/G
                 (UTC)          (F)  (DEG/KT/KT) (MB)    (MI)
HARRISON CRIB    1000            47  290/  4/  5   N/A
BURNHAM HARBOR   1000            46   CALM  /  4   N/A
CALUMET HARBOR   1000            43  250/  2/  2 1014.4S
BURNS HARBOR     1002            47  340/  3/  7 1015.6S
MICHIGAN CITY    1000            44  290/  3/  3   N/A
$$

ABBREVIATIONS USED IN REMARKS
   TC - TEMPERATURE IN CELSIUS
  WCI - WIND CHILL INDEX
   HX - HEAT INDEX
  VSB - VISIBILITY
$$



USA.gov is the U.S. government's official web portal to all federal, state and local government web resources and services.